,,,PA_Meas_PMT16A,,PR_Meas_QMR101_102,,RH_Meas_QMH101,,SR_Meas_QMS101,,TA_Meas_QMH101,,GenWind,,GenWind,
date,time,status,PA,status,PR,status,RH,status,SR,status,TA,status,DirAvg,status,SpdAvg,
2011-11-21, 00:00:04,VALID,1000.17,VALID,0,VALID,94.1037,VALID,0,VALID,23.4085,VALID,104,VALID,0,
2011-11-21, 00:01:04,VALID,1000.2,VALID,0,VALID,94.0961,VALID,0,VALID,23.389,VALID,104,VALID,0,
2011-11-21, 00:02:04,VALID,1000.21,VALID,0,VALID,94.0808,VALID,0,VALID,23.3695,VALID,88,VALID,0.713281,
2011-11-21, 00:03:04,VALID,1000.22,VALID,0,VALID,94.0961,VALID,0,VALID,23.3695,VALID,41,VALID,0.903906,
2011-11-21, 00:04:04,VALID,1000.26,VALID,0,VALID,94.0961,VALID,0,VALID,23.3695,VALID,40,VALID,0.883984,
2011-11-21, 00:05:04,VALID,1000.24,VALID,0,VALID,94.1037,VALID,0,VALID,23.3695,VALID,40,VALID,0.839453,
2011-11-21, 00:06:04,VALID,1000.21,VALID,0,VALID,94.1037,VALID,0,VALID,23.3305,VALID,40,VALID,0.644141,
2011-11-21, 00:07:04,VALID,1000.24,VALID,0,VALID,94.0961,VALID,0,VALID,23.311,VALID,50,VALID,0.589844,
2011-11-21, 00:08:04,VALID,1000.22,VALID,0,VALID,94.0885,VALID,0,VALID,23.311,VALID,50,VALID,0.348437,
2011-11-21, 00:09:04,VALID,1000.22,VALID,0,VALID,94.0732,VALID,0,VALID,23.2737,VALID,50,VALID,0.00195313,
2011-11-21, 00:10:04,VALID,1000.23,VALID,0,VALID,94.0732,VALID,0,VALID,23.2542,VALID,50,VALID,0.0621094,
2011-11-21, 00:11:04,VALID,1000.21,VALID,0,VALID,94.0885,VALID,0,VALID,23.2347,VALID,50,VALID,0.0714844,
2011-11-21, 00:12:04,VALID,1000.25,VALID,0,VALID,94.0808,VALID,0,VALID,23.2542,VALID,50,VALID,0.397266,
2011-11-21, 00:13:04,VALID,1000.2,VALID,0,VALID,94.0885,VALID,0,VALID,23.2542,VALID,48,VALID,0.537109,
2011-11-21, 00:14:04,VALID,1000.23,VALID,0,VALID,94.0732,VALID,0,VALID,23.2542,VALID,48,VALID,0.416797,
2011-11-21, 00:15:04,VALID,1000.24,VALID,0,VALID,94.0961,VALID,0,VALID,23.2347,VALID,48,VALID,0.383984,
2011-11-21, 00:16:04,VALID,1000.2,VALID,0,VALID,94.0961,VALID,0,VALID,23.2347,VALID,48,VALID,0.482812,
2011-11-21, 00:17:04,VALID,1000.21,VALID,0,VALID,94.1037,VALID,0,VALID,23.2347,VALID,48,VALID,0.473047,
2011-11-21, 00:18:04,VALID,1000.25,VALID,0,VALID,94.0961,VALID,0,VALID,23.2347,VALID,48,VALID,0.478516,
2011-11-21, 00:19:04,VALID,1000.23,VALID,0,VALID,94.1037,VALID,0,VALID,23.2152,VALID,48,VALID,0.489062,
2011-11-21, 00:20:04,VALID,1000.22,VALID,0,VALID,94.1114,VALID,0,VALID,23.2329,VALID,48,VALID,0.465625,
2011-11-21, 00:21:04,VALID,1000.21,VALID,0,VALID,94.119,VALID,0,VALID,23.2329,VALID,48,VALID,0.453906,
2011-11-21, 00:22:04,VALID,1000.21,VALID,0,VALID,94.119,VALID,0,VALID,23.2329,VALID,48,VALID,0.269922,
2011-11-21, 00:23:04,VALID,1000.15,VALID,0,VALID,94.119,VALID,0,VALID,23.2329,VALID,48,VALID,0.0015625,
2011-11-21, 00:24:04,VALID,1000.13,VALID,0,VALID,94.1343,VALID,0,VALID,23.2134,VALID,48,VALID,0,
2011-11-21, 00:25:04,VALID,1000.1,VALID,0,VALID,94.1343,VALID,0,VALID,23.1726,VALID,48,VALID,0,
2011-11-21, 00:26:04,VALID,1000.11,VALID,0,VALID,94.1495,VALID,0,VALID,23.1744,VALID,48,VALID,0,
2011-11-21, 00:27:04,VALID,1000.09,VALID,0,VALID,94.1266,VALID,0,VALID,23.1549,VALID,48,VALID,0,
2011-11-21, 00:28:04,VALID,1000.09,VALID,0,VALID,94.1266,VALID,0.104696,VALID,23.1336,VALID,48,VALID,0.317187,
2011-11-21, 00:29:04,VALID,1000.11,VALID,0,VALID,94.1571,VALID,0,VALID,23.1549,VALID,48,VALID,0.614062,
2011-11-21, 00:30:04,VALID,1000.09,VALID,0,VALID,94.1343,VALID,0,VALID,23.1336,VALID,48,VALID,0.635156,
2011-11-21, 00:31:04,VALID,1000.08,VALID,0,VALID,94.1648,VALID,0,VALID,23.1744,VALID,48,VALID,0.526563,
2011-11-21, 00:32:04,VALID,1000.06,VALID,0,VALID,94.1877,VALID,0,VALID,23.1939,VALID,48,VALID,0.446484,
2011-11-21, 00:33:04,VALID,1000.04,VALID,0,VALID,94.1877,VALID,0,VALID,23.1744,VALID,48,VALID,0.416016,
2011-11-21, 00:34:04,VALID,1000.06,VALID,0,VALID,94.1953,VALID,0,VALID,23.1939,VALID,48,VALID,0.402734,
2011-11-21, 00:35:04,VALID,1000.06,VALID,0,VALID,94.2029,VALID,0,VALID,23.1939,VALID,48,VALID,0.408984,
2011-11-21, 00:36:04,VALID,1000.07,VALID,0,VALID,94.2105,VALID,0,VALID,23.2134,VALID,48,VALID,0.464453,
2011-11-21, 00:37:04,VALID,1000.09,VALID,0,VALID,94.2258,VALID,0,VALID,23.2329,VALID,48,VALID,0.532031,
2011-11-21, 00:38:04,VALID,1000.09,VALID,0,VALID,94.2334,VALID,0,VALID,23.2134,VALID,48,VALID,0.676172,
2011-11-21, 00:39:04,VALID,1000.09,VALID,0,VALID,94.2258,VALID,0,VALID,23.2134,VALID,48,VALID,0.564844,
2011-11-21, 00:40:04,VALID,1000.1,VALID,0,VALID,94.2258,VALID,0,VALID,23.2347,VALID,48,VALID,0.426172,
2011-11-21, 00:41:04,VALID,1000.07,VALID,0,VALID,94.2487,VALID,0,VALID,23.2152,VALID,48,VALID,0.395703,
2011-11-21, 00:42:04,VALID,1000.06,VALID,0,VALID,94.2563,VALID,0,VALID,23.1762,VALID,48,VALID,0.50625,
2011-11-21, 00:43:04,VALID,1000.03,VALID,0,VALID,94.2563,VALID,0,VALID,23.1762,VALID,48,VALID,0.641797,
2011-11-21, 00:44:04,VALID,1000.01,VALID,0,VALID,94.2716,VALID,0,VALID,23.1549,VALID,48,VALID,0.569141,
2011-11-21, 00:45:04,VALID,999.99,VALID,0,VALID,94.2716,VALID,0,VALID,23.1762,VALID,48,VALID,0.539063,
2011-11-21, 00:46:04,VALID,999.975,VALID,0,VALID,94.2563,VALID,0,VALID,23.1957,VALID,48,VALID,0.539844,
2011-11-21, 00:47:04,VALID,999.952,VALID,0,VALID,94.2716,VALID,0,VALID,23.1549,VALID,48,VALID,0.460938,
2011-11-21, 00:48:04,VALID,999.967,VALID,0,VALID,94.2716,VALID,0,VALID,23.1549,VALID,48,VALID,0.322266,
2011-11-21, 00:49:04,VALID,999.96,VALID,0,VALID,94.2563,VALID,0,VALID,23.1762,VALID,48,VALID,0.352344,
2011-11-21, 00:50:04,VALID,999.939,VALID,0,VALID,94.264,VALID,0,VALID,23.1354,VALID,48,VALID,0.306641,
2011-11-21, 00:51:04,VALID,999.922,VALID,0,VALID,94.2792,VALID,0,VALID,23.1762,VALID,48,VALID,0.221484,
2011-11-21, 00:52:04,VALID,999.922,VALID,0,VALID,94.2792,VALID,0,VALID,23.1566,VALID,48,VALID,0.264844,
2011-11-21, 00:53:04,VALID,999.904,VALID,0,VALID,94.2868,VALID,0,VALID,23.1566,VALID,48,VALID,0.238281,
2011-11-21, 00:54:04,VALID,999.837,VALID,0,VALID,94.2868,VALID,0,VALID,23.1549,VALID,48,VALID,0.335938,
2011-11-21, 00:55:04,VALID,999.83,VALID,0,VALID,94.2945,VALID,0,VALID,23.1336,VALID,48,VALID,0.564062,
2011-11-21, 00:56:04,VALID,999.805,VALID,0,VALID,94.2716,VALID,0,VALID,23.1744,VALID,60,VALID,0.679688,
2011-11-21, 00:57:04,VALID,999.792,VALID,0,VALID,94.2868,VALID,0,VALID,23.1744,VALID,84,VALID,0.726563,
2011-11-21, 00:58:04,VALID,999.763,VALID,0,VALID,94.2945,VALID,0,VALID,23.1726,VALID,106,VALID,0.933984,
2011-11-21, 00:59:04,VALID,999.802,VALID,0,VALID,94.3174,VALID,0,VALID,23.1726,VALID,112,VALID,0.978906,
2011-11-21, 01:00:04,VALID,999.812,VALID,0,VALID,94.2945,VALID,0,VALID,23.1726,VALID,115,VALID,0.683984,
2011-11-21, 01:01:04,VALID,999.852,VALID,0,VALID,94.2945,VALID,0,VALID,23.1744,VALID,115,VALID,0.737891,
2011-11-21, 01:02:04,VALID,999.814,VALID,0,VALID,94.3021,VALID,0.104696,VALID,23.1921,VALID,115,VALID,0.628516,
2011-11-21, 01:03:04,VALID,999.815,VALID,0,VALID,94.3021,VALID,0,VALID,23.2134,VALID,115,VALID,0.534766,
2011-11-21, 01:04:04,VALID,999.801,VALID,0,VALID,94.325,VALID,0,VALID,23.2329,VALID,115,VALID,0.770703,
2011-11-21, 01:05:04,VALID,999.755,VALID,0,VALID,94.3326,VALID,0,VALID,23.2329,VALID,120,VALID,1,
2011-11-21, 01:06:04,VALID,999.747,VALID,0,VALID,94.3174,VALID,0,VALID,23.2719,VALID,121,VALID,1.01328,
2011-11-21, 01:07:04,VALID,999.764,VALID,0,VALID,94.3097,VALID,0,VALID,23.2719,VALID,121,VALID,0.964844,
2011-11-21, 01:08:04,VALID,999.763,VALID,0,VALID,94.325,VALID,0,VALID,23.2719,VALID,121,VALID,0.490234,
2011-11-21, 01:09:04,VALID,999.774,VALID,0,VALID,94.3174,VALID,0,VALID,23.2524,VALID,121,VALID,0.463281,
2011-11-21, 01:10:04,VALID,999.759,VALID,0,VALID,94.3174,VALID,0,VALID,23.2329,VALID,121,VALID,0.347656,
2011-11-21, 01:11:04,VALID,999.698,VALID,0,VALID,94.3097,VALID,0,VALID,23.2719,VALID,121,VALID,0.207422,
2011-11-21, 01:12:04,VALID,999.678,VALID,0,VALID,94.2945,VALID,0,VALID,23.2542,VALID,121,VALID,0.318359,
2011-11-21, 01:13:04,VALID,999.679,VALID,0,VALID,94.3097,VALID,0,VALID,23.2347,VALID,121,VALID,0.483594,
2011-11-21, 01:14:04,VALID,999.665,VALID,0,VALID,94.3021,VALID,0,VALID,23.2152,VALID,119,VALID,0.591406,
2011-11-21, 01:15:04,VALID,999.669,VALID,0,VALID,94.3021,VALID,0,VALID,23.2347,VALID,63,VALID,0.742969,
2011-11-21, 01:16:04,VALID,999.69,VALID,0,VALID,94.2868,VALID,0,VALID,23.2347,VALID,63,VALID,0.796094,
2011-11-21, 01:17:04,VALID,999.668,VALID,0,VALID,94.2945,VALID,0,VALID,23.2347,VALID,63,VALID,0.736719,
2011-11-21, 01:18:04,VALID,999.667,VALID,0,VALID,94.2792,VALID,0,VALID,23.2347,VALID,75,VALID,0.850781,
2011-11-21, 01:19:04,VALID,999.647,VALID,0,VALID,94.2868,VALID,0,VALID,23.2347,VALID,74,VALID,0.648438,
2011-11-21, 01:20:04,VALID,999.615,VALID,0,VALID,94.264,VALID,0,VALID,23.2347,VALID,73,VALID,0.944922,
2011-11-21, 01:21:04,VALID,999.543,VALID,0,VALID,94.2563,VALID,0,VALID,23.2542,VALID,100,VALID,1.00352,
2011-11-21, 01:22:04,VALID,999.527,VALID,0,VALID,94.2258,VALID,0,VALID,23.2542,VALID,89,VALID,1.33008,
2011-11-21, 01:23:04,VALID,999.497,VALID,0,VALID,94.2029,VALID,0,VALID,23.2915,VALID,74,VALID,0.625781,
2011-11-21, 01:24:04,VALID,999.461,VALID,0,VALID,94.18,VALID,0,VALID,23.311,VALID,89,VALID,0.990234,
2011-11-21, 01:25:04,VALID,999.443,VALID,0,VALID,94.1419,VALID,0,VALID,23.2702,VALID,99,VALID,1.18516,
2011-11-21, 01:26:04,VALID,999.481,VALID,0,VALID,94.0961,VALID,0,VALID,23.3305,VALID,92,VALID,0.800781,
2011-11-21, 01:27:04,VALID,999.47,VALID,0,VALID,94.058,VALID,0,VALID,23.3305,VALID,104,VALID,1.0668,
2011-11-21, 01:28:04,VALID,999.42,VALID,0,VALID,94.0122,VALID,0,VALID,23.3305,VALID,101,VALID,0.477734,
2011-11-21, 01:29:04,VALID,999.386,VALID,0,VALID,93.9893,VALID,0,VALID,23.3092,VALID,101,VALID,0.604297,
2011-11-21, 01:30:04,VALID,999.361,VALID,0,VALID,93.9588,VALID,0,VALID,23.3092,VALID,101,VALID,0.420703,
2011-11-21, 01:31:04,VALID,999.346,VALID,0,VALID,93.9206,VALID,0,VALID,23.311,VALID,101,VALID,0.0597656,
2011-11-21, 01:32:04,VALID,999.359,VALID,0,VALID,93.8748,VALID,0,VALID,23.2915,VALID,101,VALID,0.0101562,
2011-11-21, 01:33:04,VALID,999.372,VALID,0,VALID,93.852,VALID,0,VALID,23.2915,VALID,101,VALID,0.250781,
2011-11-21, 01:34:04,VALID,999.36,VALID,0,VALID,93.852,VALID,0,VALID,23.2915,VALID,101,VALID,0.329297,
2011-11-21, 01:35:04,VALID,999.364,VALID,0,VALID,93.852,VALID,0,VALID,23.2915,VALID,97,VALID,0.415234,
2011-11-21, 01:36:04,VALID,999.329,VALID,0,VALID,93.8596,VALID,0,VALID,23.2915,VALID,97,VALID,0.474609,
2011-11-21, 01:37:04,VALID,999.319,VALID,0,VALID,93.8443,VALID,0.104696,VALID,23.2702,VALID,97,VALID,0.650781,
2011-11-21, 01:38:04,VALID,999.329,VALID,0,VALID,93.8214,VALID,0,VALID,23.2702,VALID,97,VALID,0.728516,
2011-11-21, 01:39:04,VALID,999.317,VALID,0,VALID,93.8138,VALID,0,VALID,23.2915,VALID,97,VALID,0.7625,
2011-11-21, 01:40:04,VALID,999.291,VALID,0,VALID,93.7985,VALID,0,VALID,23.2719,VALID,97,VALID,0.809375,
2011-11-21, 01:41:04,VALID,999.258,VALID,0,VALID,93.7757,VALID,0,VALID,23.2719,VALID,100,VALID,0.816797,
2011-11-21, 01:42:04,VALID,999.266,VALID,0,VALID,93.7757,VALID,0,VALID,23.2915,VALID,100,VALID,0.849219,
2011-11-21, 01:43:04,VALID,999.228,VALID,0,VALID,93.7604,VALID,0.104696,VALID,23.2915,VALID,101,VALID,0.993359,
2011-11-21, 01:44:04,VALID,999.21,VALID,0,VALID,93.7528,VALID,0,VALID,23.2719,VALID,126,VALID,0.970703,
2011-11-21, 01:45:04,VALID,999.179,VALID,0,VALID,93.7223,VALID,0,VALID,23.2915,VALID,102,VALID,0.949219,
2011-11-21, 01:46:04,VALID,999.161,VALID,0,VALID,93.7146,VALID,0,VALID,23.311,VALID,100,VALID,1.12344,
2011-11-21, 01:47:04,VALID,999.162,VALID,0,VALID,93.707,VALID,0,VALID,23.311,VALID,100,VALID,0.994531,
2011-11-21, 01:48:04,VALID,999.206,VALID,0,VALID,93.6841,VALID,0,VALID,23.3092,VALID,100,VALID,0.735547,
2011-11-21, 01:49:04,VALID,999.168,VALID,0,VALID,93.6917,VALID,0,VALID,23.311,VALID,100,VALID,0.226953,
2011-11-21, 01:50:04,VALID,999.148,VALID,0,VALID,93.6612,VALID,0,VALID,23.2915,VALID,100,VALID,0,
2011-11-21, 01:51:04,VALID,999.117,VALID,0,VALID,93.6536,VALID,0,VALID,23.2719,VALID,100,VALID,0.00195313,
2011-11-21, 01:52:04,VALID,999.07,VALID,0,VALID,93.6231,VALID,0,VALID,23.2719,VALID,100,VALID,0,
2011-11-21, 01:53:04,VALID,999.08,VALID,0,VALID,93.6231,VALID,0,VALID,23.2524,VALID,100,VALID,0.0675781,
2011-11-21, 01:54:04,VALID,999.087,VALID,0,VALID,93.646,VALID,0,VALID,23.2524,VALID,100,VALID,0.272656,
2011-11-21, 01:55:04,VALID,999.069,VALID,0,VALID,93.6841,VALID,0,VALID,23.2719,VALID,100,VALID,0.401563,
2011-11-21, 01:56:04,VALID,999.051,VALID,0,VALID,93.6917,VALID,0,VALID,23.2507,VALID,100,VALID,0.326562,
2011-11-21, 01:57:04,VALID,999.045,VALID,0,VALID,93.6994,VALID,0,VALID,23.2312,VALID,83,VALID,0.446875,
2011-11-21, 01:58:04,VALID,999.023,VALID,0,VALID,93.6917,VALID,0,VALID,23.1921,VALID,83,VALID,0.3375,
2011-11-21, 01:59:04,VALID,999.028,VALID,0,VALID,93.7146,VALID,0,VALID,23.1939,VALID,83,VALID,0.467969,
2011-11-21, 02:00:04,VALID,999.015,VALID,0,VALID,93.7451,VALID,0,VALID,23.2134,VALID,29,VALID,0.519531,
2011-11-21, 02:01:04,VALID,999.078,VALID,0,VALID,93.7604,VALID,0,VALID,23.1939,VALID,29,VALID,0.274609,
2011-11-21, 02:02:04,VALID,999.077,VALID,0,VALID,93.7909,VALID,0,VALID,23.1744,VALID,29,VALID,0.0683594,
2011-11-21, 02:03:04,VALID,999.073,VALID,0,VALID,93.8062,VALID,0,VALID,23.1549,VALID,29,VALID,0,
2011-11-21, 02:04:04,VALID,999.1,VALID,0,VALID,93.8062,VALID,0,VALID,23.1354,VALID,29,VALID,0,
2011-11-21, 02:05:04,VALID,999.049,VALID,0,VALID,93.8367,VALID,0.104696,VALID,23.1141,VALID,29,VALID,0,
2011-11-21, 02:06:04,VALID,999.069,VALID,0,VALID,93.8443,VALID,0,VALID,23.0946,VALID,29,VALID,0.182422,
2011-11-21, 02:07:04,VALID,999.061,VALID,0,VALID,93.8748,VALID,0,VALID,23.0964,VALID,29,VALID,0,
2011-11-21, 02:08:04,VALID,999.111,VALID,0,VALID,93.8977,VALID,0,VALID,23.0556,VALID,29,VALID,0,
2011-11-21, 02:09:04,VALID,999.071,VALID,0,VALID,93.913,VALID,0,VALID,23.0378,VALID,29,VALID,0,
2011-11-21, 02:10:04,VALID,999.052,VALID,0,VALID,93.9511,VALID,0,VALID,23.0591,VALID,29,VALID,0,
2011-11-21, 02:11:04,VALID,999.076,VALID,0,VALID,93.974,VALID,0,VALID,23.0591,VALID,29,VALID,0,
2011-11-21, 02:12:04,VALID,999.041,VALID,0,VALID,93.9817,VALID,0,VALID,23.0396,VALID,29,VALID,0,
2011-11-21, 02:13:04,VALID,999.063,VALID,0,VALID,94.0198,VALID,0,VALID,23.0378,VALID,29,VALID,0,
2011-11-21, 02:14:04,VALID,999.03,VALID,0,VALID,94.0045,VALID,0,VALID,23.0378,VALID,29,VALID,0,
2011-11-21, 02:15:04,VALID,999.016,VALID,0,VALID,94.0351,VALID,0,VALID,23.0591,VALID,29,VALID,0.240234,
2011-11-21, 02:16:04,VALID,999.021,VALID,0,VALID,94.0732,VALID,0,VALID,23.0573,VALID,70,VALID,0.716016,
2011-11-21, 02:17:04,VALID,998.997,VALID,0,VALID,94.0885,VALID,0,VALID,23.0786,VALID,93,VALID,0.846875,
2011-11-21, 02:18:04,VALID,998.988,VALID,0,VALID,94.1114,VALID,0,VALID,23.0786,VALID,95,VALID,0.735547,
2011-11-21, 02:19:04,VALID,998.986,VALID,0,VALID,94.1419,VALID,0,VALID,23.0396,VALID,95,VALID,0.663672,
2011-11-21, 02:20:04,VALID,998.946,VALID,0,VALID,94.1266,VALID,0,VALID,22.9793,VALID,95,VALID,0,
2011-11-21, 02:21:04,VALID,998.998,VALID,0,VALID,94.1495,VALID,0,VALID,22.9598,VALID,95,VALID,0,
2011-11-21, 02:22:04,VALID,999.008,VALID,0,VALID,94.1419,VALID,0,VALID,22.9615,VALID,17,VALID,0.677344,
2011-11-21, 02:23:04,VALID,998.982,VALID,0,VALID,94.1495,VALID,0,VALID,22.9793,VALID,10,VALID,0.710938,
2011-11-21, 02:24:04,VALID,998.982,VALID,0,VALID,94.1648,VALID,0,VALID,23.0183,VALID,10,VALID,0.65,
2011-11-21, 02:25:04,VALID,998.977,VALID,0,VALID,94.18,VALID,0,VALID,23.0183,VALID,10,VALID,0.476563,
2011-11-21, 02:26:04,VALID,998.97,VALID,0,VALID,94.2105,VALID,0,VALID,22.9971,VALID,10,VALID,0.526172,
2011-11-21, 02:27:04,VALID,998.959,VALID,0,VALID,94.2105,VALID,0,VALID,23.0573,VALID,10,VALID,0.567969,
2011-11-21, 02:28:04,VALID,998.979,VALID,0,VALID,94.2029,VALID,0,VALID,23.0769,VALID,10,VALID,0.766406,
2011-11-21, 02:29:04,VALID,998.932,VALID,0,VALID,94.2258,VALID,0,VALID,23.0751,VALID,15,VALID,0.776172,
2011-11-21, 02:30:04,VALID,998.914,VALID,0,VALID,94.2105,VALID,0,VALID,23.0946,VALID,50,VALID,0.830469,
2011-11-21, 02:31:04,VALID,998.927,VALID,0,VALID,94.2182,VALID,0,VALID,23.0964,VALID,50,VALID,0.870313,
2011-11-21, 02:32:04,VALID,998.883,VALID,0,VALID,94.2258,VALID,0,VALID,23.0769,VALID,50,VALID,0.717578,
2011-11-21, 02:33:04,VALID,998.875,VALID,0,VALID,94.2029,VALID,0,VALID,23.0361,VALID,50,VALID,0.603516,
2011-11-21, 02:34:04,VALID,998.921,VALID,0,VALID,94.1953,VALID,0,VALID,23.0378,VALID,50,VALID,0.366797,
2011-11-21, 02:35:04,VALID,998.911,VALID,0,VALID,94.1953,VALID,0,VALID,22.9988,VALID,50,VALID,0,
2011-11-21, 02:36:04,VALID,998.917,VALID,0,VALID,94.1877,VALID,0,VALID,22.9598,VALID,50,VALID,0,
2011-11-21, 02:37:04,VALID,998.902,VALID,0,VALID,94.1648,VALID,0,VALID,22.9598,VALID,50,VALID,0,
2011-11-21, 02:38:04,VALID,998.891,VALID,0,VALID,94.1877,VALID,0,VALID,22.9581,VALID,50,VALID,0,
2011-11-21, 02:39:04,VALID,998.916,VALID,0,VALID,94.18,VALID,0,VALID,22.9793,VALID,50,VALID,0,
2011-11-21, 02:40:04,VALID,998.939,VALID,0,VALID,94.1877,VALID,0,VALID,22.9793,VALID,50,VALID,0,
2011-11-21, 02:41:04,VALID,998.917,VALID,0,VALID,94.1648,VALID,0,VALID,22.9598,VALID,50,VALID,0,
2011-11-21, 02:42:04,VALID,998.925,VALID,0,VALID,94.1953,VALID,0,VALID,22.9598,VALID,50,VALID,0,
2011-11-21, 02:43:04,VALID,998.924,VALID,0,VALID,94.1953,VALID,0,VALID,22.9403,VALID,50,VALID,0,
2011-11-21, 02:44:04,VALID,998.907,VALID,0,VALID,94.2105,VALID,0,VALID,22.9403,VALID,50,VALID,0,
2011-11-21, 02:45:04,VALID,998.941,VALID,0,VALID,94.2105,VALID,0,VALID,22.9013,VALID,50,VALID,0,
2011-11-21, 02:46:04,VALID,998.931,VALID,0,VALID,94.2029,VALID,0,VALID,22.8818,VALID,50,VALID,0,
2011-11-21, 02:47:04,VALID,998.961,VALID,0,VALID,94.2182,VALID,0,VALID,22.9013,VALID,50,VALID,0,
2011-11-21, 02:48:04,VALID,998.953,VALID,0,VALID,94.2105,VALID,0,VALID,22.9013,VALID,50,VALID,0,
2011-11-21, 02:49:04,VALID,998.97,VALID,0,VALID,94.2105,VALID,0,VALID,22.9013,VALID,50,VALID,0,
2011-11-21, 02:50:04,VALID,998.992,VALID,0,VALID,94.2182,VALID,0,VALID,22.8818,VALID,50,VALID,0,
2011-11-21, 02:51:04,VALID,998.976,VALID,0,VALID,94.2258,VALID,0,VALID,22.88,VALID,54,VALID,0,
2011-11-21, 02:52:04,VALID,998.966,VALID,0,VALID,94.2563,VALID,0,VALID,22.9403,VALID,82,VALID,0,
2011-11-21, 02:53:04,VALID,998.949,VALID,0,VALID,94.2334,VALID,0,VALID,22.9598,VALID,116,VALID,0.636719,
2011-11-21, 02:54:04,VALID,998.946,VALID,0,VALID,94.264,VALID,0,VALID,22.9793,VALID,119,VALID,0.758984,
2011-11-21, 02:55:04,VALID,998.956,VALID,0,VALID,94.2411,VALID,0,VALID,22.9988,VALID,119,VALID,0.724609,
2011-11-21, 02:56:04,VALID,998.969,VALID,0,VALID,94.2411,VALID,0,VALID,23.0378,VALID,119,VALID,0.748828,
2011-11-21, 02:57:04,VALID,999.025,VALID,0,VALID,94.2487,VALID,0,VALID,23.0378,VALID,119,VALID,0.429688,
2011-11-21, 02:58:04,VALID,998.978,VALID,0,VALID,94.2334,VALID,0,VALID,23.0378,VALID,119,VALID,0.26875,
2011-11-21, 02:59:04,VALID,998.99,VALID,0,VALID,94.2334,VALID,0,VALID,23.0378,VALID,119,VALID,0.0148437,
2011-11-21, 03:00:04,VALID,999.024,VALID,0,VALID,94.2105,VALID,0,VALID,23.0183,VALID,119,VALID,0,
2011-11-21, 03:01:04,VALID,999.013,VALID,0,VALID,94.2029,VALID,0,VALID,22.9988,VALID,119,VALID,0.00234375,
2011-11-21, 03:02:04,VALID,998.997,VALID,0,VALID,94.1953,VALID,0,VALID,23.0378,VALID,119,VALID,0.294531,
2011-11-21, 03:03:04,VALID,999.025,VALID,0,VALID,94.1877,VALID,0,VALID,22.9971,VALID,119,VALID,0.124219,
2011-11-21, 03:04:04,VALID,998.969,VALID,0,VALID,94.1877,VALID,0,VALID,23.0166,VALID,119,VALID,0.172656,
2011-11-21, 03:05:04,VALID,998.96,VALID,0,VALID,94.1648,VALID,0,VALID,23.0573,VALID,119,VALID,0.375391,
2011-11-21, 03:06:04,VALID,998.982,VALID,0,VALID,94.1571,VALID,0,VALID,23.0964,VALID,118,VALID,0.535156,
2011-11-21, 03:07:04,VALID,998.997,VALID,0,VALID,94.1495,VALID,0,VALID,23.0964,VALID,118,VALID,0.258984,
2011-11-21, 03:08:04,VALID,998.975,VALID,0,VALID,94.1343,VALID,0,VALID,23.0769,VALID,118,VALID,0.514844,
2011-11-21, 03:09:04,VALID,998.997,VALID,0,VALID,94.0885,VALID,0,VALID,23.0751,VALID,118,VALID,0.241406,
2011-11-21, 03:10:04,VALID,998.989,VALID,0,VALID,94.0732,VALID,0,VALID,23.0946,VALID,118,VALID,0.0792969,
2011-11-21, 03:11:04,VALID,998.995,VALID,0,VALID,94.0503,VALID,0,VALID,23.0946,VALID,118,VALID,0.194922,
2011-11-21, 03:12:04,VALID,999.004,VALID,0,VALID,94.0198,VALID,0,VALID,23.0946,VALID,118,VALID,0.396875,
2011-11-21, 03:13:04,VALID,998.995,VALID,0,VALID,93.9969,VALID,0,VALID,23.0964,VALID,118,VALID,0.435156,
2011-11-21, 03:14:04,VALID,998.999,VALID,0,VALID,93.9664,VALID,0,VALID,23.0751,VALID,118,VALID,0.486719,
2011-11-21, 03:15:04,VALID,999.026,VALID,0,VALID,93.9588,VALID,0,VALID,23.0964,VALID,118,VALID,0.387109,
2011-11-21, 03:16:04,VALID,998.998,VALID,0,VALID,93.9511,VALID,0,VALID,23.1159,VALID,118,VALID,0.632422,
2011-11-21, 03:17:04,VALID,998.981,VALID,0,VALID,93.9359,VALID,0,VALID,23.1549,VALID,110,VALID,0.838672,
2011-11-21, 03:18:04,VALID,998.971,VALID,0,VALID,93.9511,VALID,0,VALID,23.1744,VALID,110,VALID,1.04219,
2011-11-21, 03:19:04,VALID,998.961,VALID,0,VALID,93.8901,VALID,0,VALID,23.1939,VALID,111,VALID,0.728516,
2011-11-21, 03:20:04,VALID,998.956,VALID,0,VALID,93.8214,VALID,0,VALID,23.1939,VALID,111,VALID,0.437109,
2011-11-21, 03:21:04,VALID,998.935,VALID,0,VALID,93.768,VALID,0,VALID,23.1744,VALID,111,VALID,0,
2011-11-21, 03:22:04,VALID,998.919,VALID,0,VALID,93.7223,VALID,0,VALID,23.1354,VALID,111,VALID,0.221094,
2011-11-21, 03:23:04,VALID,998.901,VALID,0,VALID,93.6765,VALID,0,VALID,23.1159,VALID,111,VALID,0.144531,
2011-11-21, 03:24:04,VALID,998.873,VALID,0,VALID,93.6612,VALID,0,VALID,23.0964,VALID,111,VALID,0,
2011-11-21, 03:25:04,VALID,998.867,VALID,0,VALID,93.646,VALID,0,VALID,23.0964,VALID,111,VALID,0,
2011-11-21, 03:26:04,VALID,998.884,VALID,0,VALID,93.6536,VALID,0,VALID,23.0573,VALID,111,VALID,0,
2011-11-21, 03:27:04,VALID,998.884,VALID,0,VALID,93.6383,VALID,0,VALID,23.0166,VALID,111,VALID,0.0820313,
2011-11-21, 03:28:04,VALID,998.892,VALID,0,VALID,93.6612,VALID,0,VALID,23.0183,VALID,111,VALID,0.310547,
2011-11-21, 03:29:04,VALID,998.927,VALID,0,VALID,93.6765,VALID,0,VALID,23.0183,VALID,111,VALID,0.514844,
2011-11-21, 03:30:04,VALID,998.957,VALID,0,VALID,93.7146,VALID,0,VALID,23.0183,VALID,111,VALID,0.489062,
2011-11-21, 03:31:04,VALID,998.97,VALID,0,VALID,93.7604,VALID,0,VALID,22.9971,VALID,111,VALID,0.285156,
2011-11-21, 03:32:04,VALID,998.999,VALID,0,VALID,93.7757,VALID,0,VALID,23.0183,VALID,111,VALID,0.160156,
2011-11-21, 03:33:04,VALID,998.982,VALID,0,VALID,93.7909,VALID,0,VALID,22.9793,VALID,111,VALID,0.127344,
2011-11-21, 03:34:04,VALID,999.018,VALID,0,VALID,93.8138,VALID,0,VALID,22.9793,VALID,111,VALID,0.139062,
2011-11-21, 03:35:04,VALID,998.988,VALID,0,VALID,93.8291,VALID,0,VALID,22.9598,VALID,111,VALID,0.223828,
2011-11-21, 03:36:04,VALID,999.026,VALID,0,VALID,93.8596,VALID,0,VALID,22.9598,VALID,111,VALID,0.509766,
2011-11-21, 03:37:04,VALID,999.071,VALID,0,VALID,93.8748,VALID,0,VALID,22.9581,VALID,111,VALID,0.291797,
2011-11-21, 03:38:04,VALID,999.109,VALID,0,VALID,93.9206,VALID,0,VALID,22.9776,VALID,111,VALID,0.450391,
2011-11-21, 03:39:04,VALID,999.121,VALID,0,VALID,93.9511,VALID,0,VALID,23.0183,VALID,111,VALID,0.448047,
2011-11-21, 03:40:04,VALID,999.118,VALID,0,VALID,93.9969,VALID,0,VALID,23.0378,VALID,111,VALID,0.381641,
2011-11-21, 03:41:04,VALID,999.098,VALID,0,VALID,93.9969,VALID,0,VALID,23.0378,VALID,111,VALID,0.419531,
2011-11-21, 03:42:04,VALID,999.069,VALID,0,VALID,93.9817,VALID,0,VALID,23.0378,VALID,110,VALID,0.412891,
2011-11-21, 03:43:04,VALID,999.114,VALID,0,VALID,93.9893,VALID,0,VALID,22.9988,VALID,110,VALID,0.391797,
2011-11-21, 03:44:04,VALID,999.07,VALID,0,VALID,93.9893,VALID,0,VALID,22.9776,VALID,110,VALID,0.115625,
2011-11-21, 03:45:04,VALID,999.094,VALID,0,VALID,93.9969,VALID,0,VALID,22.9581,VALID,110,VALID,0.230859,
2011-11-21, 03:46:04,VALID,999.063,VALID,0,VALID,94.0045,VALID,0,VALID,22.9598,VALID,110,VALID,0.516016,
2011-11-21, 03:47:04,VALID,999.076,VALID,0,VALID,94.0045,VALID,0,VALID,22.9208,VALID,110,VALID,0.492578,